�������l�o���
Date,Time,MP-1(��Sv/h),MP-2(��Sv/h),MP-3(��Sv/h),MP-4(��Sv/h),MP-5(��Sv/h),MP-6(��Sv/h),MP-7(��Sv/h),MP-8(��Sv/h),����,����(m/s),���J
2024/01/14,00:00,0.515,0.781,0.487,0.992,0.705,0.313,0.564,0.528,�k��,7.2,��
2024/01/14,00:10,0.516,0.783,0.490,0.989,0.704,0.314,0.563,0.527,�k�k��,8.0,��
2024/01/14,00:20,0.516,0.782,0.488,0.991,0.703,0.314,0.564,0.527,�k�k��,6.4,��
2024/01/14,00:30,0.516,0.782,0.490,0.991,0.704,0.316,0.564,0.528,�k�k��,4.3,��
2024/01/14,00:40,0.515,0.783,0.489,0.991,0.704,0.314,0.564,0.526,�k��,3.8,��
2024/01/14,00:50,0.516,0.782,0.487,0.989,0.704,0.315,0.564,0.528,�k�k��,4.6,��
2024/01/14,01:00,0.514,0.781,0.489,0.990,0.702,0.315,0.564,0.527,�k�k��,3.8,��
2024/01/14,01:10,0.515,0.783,0.487,0.990,0.703,0.314,0.563,0.527,�k�k��,4.9,��
2024/01/14,01:20,0.513,0.782,0.488,0.990,0.702,0.315,0.565,0.528,�k�k��,7.5,��
2024/01/14,01:30,0.515,0.783,0.488,0.991,0.704,0.315,0.564,0.527,�k��,7.9,��
2024/01/14,01:40,0.516,0.785,0.488,0.990,0.704,0.313,0.564,0.526,�k�k��,6.6,��
2024/01/14,01:50,0.517,0.783,0.488,0.989,0.705,0.315,0.563,0.526,�k��,5.6,��
2024/01/14,02:00,0.515,0.783,0.487,0.991,0.704,0.314,0.563,0.528,�k��,6.8,��
2024/01/14,02:10,0.516,0.781,0.487,0.989,0.704,0.313,0.563,0.528,�k��,5.6,��
2024/01/14,02:20,0.516,0.782,0.488,0.989,0.703,0.315,0.563,0.527,�k�k��,4.9,��
2024/01/14,02:30,0.515,0.783,0.489,0.990,0.704,0.313,0.563,0.527,�k��,3.3,��
2024/01/14,02:40,0.514,0.782,0.488,0.991,0.703,0.315,0.562,0.527,��,4.2,��
2024/01/14,02:50,0.515,0.782,0.489,0.990,0.702,0.314,0.562,0.526,���쐼,2.8,��
2024/01/14,03:00,0.515,0.782,0.487,0.991,0.701,0.314,0.563,0.527,��,3.8,��
2024/01/14,03:10,0.517,0.781,0.489,0.991,0.701,0.315,0.563,0.525,��,2.9,��
2024/01/14,03:20,0.516,0.782,0.488,0.990,0.704,0.314,0.562,0.527,��,3.0,��
2024/01/14,03:30,0.515,0.783,0.487,0.989,0.701,0.314,0.561,0.526,��,1.7,��
2024/01/14,03:40,0.516,0.781,0.488,0.991,0.703,0.314,0.562,0.527,���k��,2.2,��
2024/01/14,03:50,0.514,0.782,0.487,0.989,0.703,0.314,0.561,0.527,���k��,4.3,��
2024/01/14,04:00,0.515,0.783,0.488,0.994,0.703,0.313,0.562,0.525,���k��,5.6,��
2024/01/14,04:10,0.514,0.782,0.487,0.990,0.703,0.314,0.562,0.526,��,3.8,��
2024/01/14,04:20,0.515,0.782,0.487,0.992,0.702,0.314,0.561,0.526,���쐼,3.4,��
2024/01/14,04:30,0.516,0.782,0.486,0.989,0.703,0.313,0.561,0.526,��,5.5,��
2024/01/14,04:40,0.515,0.781,0.487,0.988,0.702,0.312,0.561,0.527,��,5.5,��
2024/01/14,04:50,0.513,0.783,0.488,0.990,0.701,0.313,0.561,0.527,���k��,4.6,��
2024/01/14,05:00,0.516,0.783,0.486,0.988,0.703,0.314,0.562,0.525,���k��,2.6,��
2024/01/14,05:10,0.516,0.780,0.487,0.988,0.701,0.313,0.562,0.526,�쐼,0.9,��
2024/01/14,05:20,0.516,0.781,0.488,0.988,0.701,0.314,0.562,0.527,��,1.7,��
2024/01/14,05:30,0.515,0.783,0.485,0.989,0.703,0.314,0.562,0.526,���k��,5.2,��
2024/01/14,05:40,0.515,0.782,0.485,0.991,0.702,0.313,0.562,0.526,���k��,7.3,��
2024/01/14,05:50,0.515,0.782,0.486,0.990,0.702,0.313,0.560,0.526,��,5.3,��
2024/01/14,06:00,0.514,0.782,0.486,0.990,0.702,0.312,0.561,0.526,��,6.2,��
2024/01/14,06:10,0.513,0.780,0.486,0.990,0.702,0.312,0.562,0.526,��,8.3,��
2024/01/14,06:20,0.516,0.782,0.486,0.989,0.702,0.313,0.562,0.526,��,7.3,��
2024/01/14,06:30,0.516,0.782,0.487,0.990,0.701,0.313,0.560,0.526,��,6.2,��
2024/01/14,06:40,0.515,0.781,0.485,0.990,0.702,0.313,0.561,0.528,��,7.3,��
2024/01/14,06:50,0.516,0.782,0.486,0.990,0.702,0.313,0.561,0.526,��,8.4,��
2024/01/14,07:00,0.516,0.782,0.486,0.990,0.702,0.313,0.562,0.525,��,7.6,��
2024/01/14,07:10,0.514,0.782,0.486,0.989,0.701,0.313,0.562,0.524,���쐼,7.3,��
2024/01/14,07:20,0.514,0.782,0.487,0.989,0.704,0.313,0.561,0.525,���쐼,7.0,��
2024/01/14,07:30,0.514,0.781,0.486,0.990,0.702,0.312,0.562,0.527,���쐼,5.8,��
2024/01/14,07:40,0.514,0.782,0.487,0.990,0.703,0.312,0.562,0.526,���쐼,7.0,��
2024/01/14,07:50,0.515,0.783,0.487,0.991,0.702,0.312,0.562,0.526,���쐼,7.1,��
2024/01/14,08:00,0.515,0.780,0.486,0.992,0.701,0.313,0.561,0.527,���쐼,6.2,��
2024/01/14,08:10,0.515,0.782,0.487,0.989,0.701,0.314,0.562,0.526,���쐼,6.4,��
2024/01/14,08:20,0.516,0.780,0.487,0.989,0.702,0.314,0.560,0.527,���쐼,6.6,��
2024/01/14,08:30,0.514,0.785,0.488,0.989,0.702,0.313,0.562,0.527,��,5.9,��
2024/01/14,08:40,0.517,0.785,0.487,0.990,0.702,0.313,0.561,0.528,���쐼,6.7,��
2024/01/14,08:50,0.515,0.784,0.487,0.993,0.700,0.314,0.563,0.526,��,8.3,��
2024/01/14,09:00,0.517,0.784,0.486,0.990,0.700,0.314,0.563,0.528,��,6.9,��
2024/01/14,09:10,0.516,0.781,0.487,0.990,0.703,0.314,0.561,0.527,��,6.6,��
2024/01/14,09:20,0.516,0.784,0.487,0.992,0.703,0.314,0.563,0.526,���쐼,4.8,��
2024/01/14,09:30,0.516,0.783,0.487,0.992,0.702,0.314,0.564,0.527,��,4.6,��
2024/01/14,09:40,0.516,0.783,0.486,0.992,0.702,0.314,0.563,0.527,��,5.1,��
2024/01/14,09:50,0.516,0.784,0.490,0.991,0.703,0.314,0.564,0.528,���쐼,5.3,��
2024/01/14,10:00,0.515,0.784,0.489,0.990,0.703,0.314,0.562,0.528,��,4.3,��
2024/01/14,10:10,0.517,0.784,0.489,0.992,0.702,0.313,0.563,0.526,��,4.0,��
2024/01/14,10:20,0.517,0.781,0.488,0.992,0.704,0.313,0.563,0.529,���k��,3.9,��
2024/01/14,10:30,0.515,0.782,0.488,0.991,0.705,0.313,0.563,0.529,��,5.2,��
2024/01/14,10:40,0.515,0.784,0.487,0.993,0.704,0.313,0.563,0.528,���k��,3.8,��
2024/01/14,10:50,0.517,0.781,0.488,0.993,0.704,0.313,0.563,0.527,���k��,3.3,��
2024/01/14,11:00,0.516,0.780,0.488,0.993,0.704,0.316,0.563,0.526,�k��,3.2,��
2024/01/14,11:10,0.515,0.780,0.488,0.993,0.704,0.315,0.564,0.528,�k��,2.6,��
2024/01/14,11:20,0.515,0.782,0.489,0.994,0.705,0.314,0.562,0.528,�k�k��,2.6,��
2024/01/14,11:30,0.517,0.783,0.489,0.992,0.703,0.315,0.563,0.528,�k�k��,2.2,��
2024/01/14,11:40,0.515,0.782,0.487,0.992,0.704,0.315,0.564,0.528,��,1.2,��
2024/01/14,11:50,0.516,0.782,0.489,0.992,0.704,0.316,0.563,0.528,�쓌,4.0,��
2024/01/14,12:00,0.516,0.782,0.489,0.992,0.706,0.316,0.564,0.528,�쓌,3.7,��
2024/01/14,12:10,0.518,0.782,0.488,0.991,0.706,0.314,0.563,0.527,�쓌,5.0,��
2024/01/14,12:20,0.516,0.782,0.489,0.993,0.706,0.315,0.564,0.528,��쓌,6.7,��
2024/01/14,12:30,0.515,0.781,0.489,0.993,0.705,0.314,0.564,0.530,�쓌,4.2,��
2024/01/14,12:40,0.517,0.782,0.489,0.992,0.704,0.317,0.564,0.528,��쓌,7.9,��
2024/01/14,12:50,0.518,0.782,0.490,0.994,0.705,0.315,0.565,0.529,��쓌,8.0,��
2024/01/14,13:00,0.518,0.782,0.490,0.993,0.705,0.316,0.566,0.528,��쓌,6.6,��
2024/01/14,13:10,0.517,0.781,0.491,0.992,0.703,0.315,0.566,0.528,��쓌,8.2,��
2024/01/14,13:20,0.516,0.782,0.488,0.991,0.706,0.315,0.565,0.528,��쓌,7.8,��
2024/01/14,13:30,0.517,0.783,0.490,0.994,0.707,0.316,0.566,0.528,��,5.6,��
2024/01/14,13:40,0.517,0.783,0.490,0.992,0.706,0.315,0.563,0.527,��,8.1,��
2024/01/14,13:50,0.516,0.783,0.490,0.994,0.706,0.316,0.564,0.526,��쓌,7.2,��
2024/01/14,14:00,0.517,0.785,0.490,0.993,0.706,0.316,0.565,0.526,��,7.2,��
2024/01/14,14:10,0.518,0.783,0.491,0.993,0.707,0.316,0.566,0.526,��쓌,8.2,��
2024/01/14,14:20,0.516,0.784,0.491,0.994,0.708,0.317,0.564,0.528,��,8.4,��
2024/01/14,14:30,0.518,0.782,0.490,0.994,0.706,0.315,0.565,0.526,��,8.0,��
2024/01/14,14:40,0.518,0.782,0.490,0.993,0.707,0.316,0.564,0.525,��쓌,9.2,��
2024/01/14,14:50,0.517,0.782,0.491,0.993,0.706,0.316,0.566,0.528,��,8.6,��
2024/01/14,15:00,0.518,0.783,0.490,0.993,0.706,0.316,0.565,0.527,��,7.5,��
2024/01/14,15:10,0.517,0.786,0.490,0.995,0.707,0.316,0.565,0.528,��,7.4,��
2024/01/14,15:20,0.518,0.784,0.492,0.994,0.708,0.316,0.565,0.528,��,6.5,��
2024/01/14,15:30,0.519,0.788,0.490,0.993,0.708,0.317,0.565,0.528,��,6.7,��
2024/01/14,15:40,0.517,0.787,0.489,0.992,0.706,0.316,0.565,0.528,��쐼,4.4,��
2024/01/14,15:50,0.517,0.784,0.492,0.995,0.706,0.317,0.565,0.529,��쐼,6.3,��
2024/01/14,16:00,0.518,0.787,0.490,0.993,0.706,0.314,0.563,0.527,��쐼,7.3,��
2024/01/14,16:10,0.519,0.787,0.491,0.995,0.705,0.316,0.565,0.528,�쐼,5.8,��
2024/01/14,16:20,0.518,0.784,0.491,0.992,0.706,0.316,0.564,0.527,��쐼,5.3,��
2024/01/14,16:30,0.518,0.787,0.491,0.995,0.708,0.316,0.564,0.527,��쐼,7.3,��
2024/01/14,16:40,0.519,0.784,0.490,0.993,0.708,0.316,0.564,0.528,��,7.3,��
2024/01/14,16:50,0.517,0.786,0.490,0.991,0.707,0.316,0.565,0.528,��,7.9,��
2024/01/14,17:00,0.519,0.787,0.492,0.992,0.706,0.315,0.565,0.528,��,9.2,��
2024/01/14,17:10,0.518,0.785,0.492,0.992,0.706,0.316,0.565,0.527,��쐼,9.0,��
2024/01/14,17:20,0.518,0.785,0.490,0.993,0.706,0.316,0.564,0.530,��쐼,8.2,��
2024/01/14,17:30,0.519,0.784,0.491,0.993,0.707,0.316,0.566,0.528,��쐼,7.0,��
2024/01/14,17:40,0.519,0.786,0.491,0.993,0.707,0.316,0.563,0.527,��,7.4,��
2024/01/14,17:50,0.520,0.786,0.490,0.994,0.708,0.316,0.564,0.528,��,7.2,��
2024/01/14,18:00,0.520,0.786,0.492,0.992,0.708,0.316,0.563,0.528,��,7.0,��
2024/01/14,18:10,0.518,0.786,0.490,0.993,0.707,0.317,0.563,0.528,��,5.9,��
2024/01/14,18:20,0.519,0.787,0.491,0.994,0.705,0.317,0.564,0.528,��,4.9,��
2024/01/14,18:30,0.518,0.786,0.491,0.995,0.708,0.317,0.563,0.529,��,4.3,��
2024/01/14,18:40,0.518,0.785,0.491,0.994,0.706,0.315,0.564,0.529,��,3.4,��
2024/01/14,18:50,0.517,0.786,0.490,0.994,0.704,0.315,0.564,0.529,��,2.3,��
2024/01/14,19:00,0.517,0.785,0.489,0.992,0.707,0.315,0.562,0.528,��,2.3,��
2024/01/14,19:10,0.516,0.786,0.489,0.993,0.707,0.316,0.563,0.527,��,2.9,��
2024/01/14,19:20,0.518,0.787,0.492,0.995,0.708,0.315,0.564,0.529,��,3.6,��
2024/01/14,19:30,0.518,0.784,0.491,0.995,0.707,0.315,0.564,0.526,��쐼,4.0,��
2024/01/14,19:40,0.519,0.785,0.490,0.993,0.706,0.316,0.562,0.528,��쐼,4.6,��
2024/01/14,19:50,0.518,0.785,0.490,0.992,0.706,0.316,0.562,0.528,��쐼,5.1,��
2024/01/14,20:00,0.518,0.785,0.491,0.991,0.706,0.315,0.563,0.528,��쐼,6.6,��
2024/01/14,20:10,0.517,0.785,0.491,0.993,0.707,0.316,0.563,0.528,��쐼,5.5,��
2024/01/14,20:20,0.518,0.786,0.492,0.994,0.708,0.317,0.564,0.529,��쐼,6.5,��
2024/01/14,20:30,0.520,0.786,0.492,0.995,0.709,0.316,0.564,0.527,��쐼,7.4,��
2024/01/14,20:40,0.520,0.785,0.489,0.995,0.705,0.316,0.564,0.527,��쐼,6.9,��
2024/01/14,20:50,0.516,0.785,0.491,0.993,0.708,0.315,0.563,0.529,��쐼,6.8,��
2024/01/14,21:00,0.518,0.785,0.490,0.996,0.707,0.317,0.565,0.527,��쐼,6.8,��
2024/01/14,21:10,0.520,0.787,0.490,0.995,0.708,0.316,0.564,0.527,�쐼,6.5,��
2024/01/14,21:20,0.518,0.786,0.493,0.993,0.706,0.317,0.564,0.528,�쐼,6.6,��
2024/01/14,21:30,0.519,0.786,0.492,0.994,0.707,0.316,0.563,0.527,�쐼,5.5,��
2024/01/14,21:40,0.519,0.785,0.490,0.994,0.708,0.315,0.565,0.527,�쐼,3.9,��
2024/01/14,21:50,0.519,0.784,0.491,0.994,0.706,0.316,0.566,0.529,�쐼,3.2,��
2024/01/14,22:00,0.519,0.784,0.491,0.994,0.707,0.317,0.563,0.528,��,1.5,��
2024/01/14,22:10,0.518,0.783,0.490,0.992,0.705,0.316,0.564,0.528,��쐼,1.2,��
2024/01/14,22:20,0.520,0.787,0.490,0.994,0.707,0.316,0.564,0.529,�쓌,1.7,��
2024/01/14,22:30,0.518,0.786,0.490,0.992,0.707,0.316,0.565,0.528,��쓌,2.6,��
2024/01/14,22:40,0.520,0.786,0.490,0.996,0.707,0.317,0.564,0.528,��쓌,2.5,��
2024/01/14,22:50,0.519,0.785,0.492,0.994,0.707,0.316,0.564,0.529,��쓌,2.3,��
2024/01/14,23:00,0.518,0.786,0.491,0.994,0.707,0.316,0.565,0.529,��쓌,1.9,��
2024/01/14,23:10,0.519,0.785,0.491,0.995,0.707,0.316,0.564,0.527,��,2.2,��
2024/01/14,23:20,0.518,0.785,0.490,0.994,0.706,0.317,0.564,0.528,��쓌,3.1,��
2024/01/14,23:30,0.519,0.784,0.490,0.995,0.707,0.316,0.564,0.528,��,5.5,��
2024/01/14,23:40,0.519,0.787,0.493,0.993,0.706,0.316,0.564,0.527,��,5.2,��
2024/01/14,23:50,0.519,0.786,0.492,0.994,0.708,0.316,0.565,0.528,��,5.7,��
